CAPE
907 834 850 861 912 954 1003 1042 1106 1149 1184 1198 1400 1578 1682 1782 1807 1859 1936 1947 1996 2176 2258 2243 2371 2397 2526 2572 2655 2684 2690 2658 2575 2421 2420 2390 2248 2124 1916 1646 1424 1073
1104 1001 964 904 917 970 1016 1055 1100 1125 1154 1146 1180 1387 1524 1617 1700 1801 1819 1854 1950 2104 2212 2291 2319 2395 2470 2551 2562 2644 2682 2675 2634 2520 2512 2499 2388 2277 2164 1935 1643 1291
1231 1170 1079 974 931 962 1016 1052 1072 1095 1098 1101 1080 1113 1329 1550 1602 1697 1757 1798 1830 1955 2105 2294 2378 2413 2433 2522 2523 2574 2617 2644 2640 2642 2717 2694 2593 2504 2480 2265 1940 1628
1245 1200 1119 1033 963 954 979 1012 1048 1044 1048 1048 1041 1020 1196 1472 1549 1603 1705 2100 1810 1824 1973 2192 2410 2468 2494 2510 2514 2542 2599 2630 2688 2750 2815 2826 2783 2736 2690 2577 2298 1976
1202 1174 1134 1079 1016 977 983 994 1014 1026 1023 995 969 944 1157 1371 1488 1513 1600 1754 1828 1819 1872 2078 2266 2451 2550 2562 2503 2560 2564 2630 2718 2781 2821 2845 2842 2827 2798 2719 2510 2244
1162 1158 1143 1098 1031 1006 1001 1009 1012 996 980 948 934 891 986 1189 1404 1465 1523 1583 1729 1796 1818 1948 2126 2300 2444 2579 2506 2548 2546 2549 2640 2698 2746 2770 2817 2870 2878 2836 2722 2475
1134 1133 1142 1107 1061 1046 1040 1032 1028 1014 982 954 906 887 953 1136 1298 1425 1470 1538 1618 1750 1794 1856 1986 2194 2317 2466 2514 2529 2502 2515 2542 2581 2637 2687 2713 2780 2862 2882 2807 2695
1121 1120 1126 1117 1092 1096 1091 1086 1074 1055 1032 979 919 909 981 1160 1261 1376 1454 1485 1558 1644 1757 1809 1894 2032 2168 2340 2435 2485 2492 2438 2454 2487 2572 2591 2599 2638 2715 2809 2860 2724
1124 1128 1128 1122 1119 1112 1122 1121 1106 1087 1054 1012 968 937 1078 1162 1263 1374 1479 1504 1530 1602 1678 1765 1858 1938 2068 2243 2345 2415 2458 2408 2386 2450 2466 2499 2507 2546 2567 2602 2694 2692
1126 1144 1108 1118 1125 1136 1126 1137 1117 1104 1069 1136 1058 1013 1171 1269 1298 1384 1491 1546 1554 1608 1642 1735 1822 1877 1997 2092 2230 2328 2364 2417 2427 2407 2448 2486 2508 2475 2454 2474 2509 2543
1118 1116 1112 1108 1117 1123 1141 1128 1118 1100 1054 1179 1247 1194 1210 1292 1430 1448 1516 1580 1600 1631 1660 1699 1782 1872 1948 2058 2161 2238 2306 2338 2375 2390 2405 2453 2504 2515 2505 2425 2458 2476
1104 1114 1106 1102 1110 1129 1146 1144 1125 1090 1052 1015 1226 1351 1328 1321 1435 1580 1610 1633 1673 1704 1701 1702 1741 1818 1928 2016 2131 2228 2319 2347 2391 2401 2392 2432 2458 2492 2508 2532 2449 2470
1089 1101 1096 1082 1091 1121 1129 1149 1135 1102 1059 1035 1174 1244 1350 1374 1360 1554 1718 1752 1770 1787 1790 1779 1755 1783 1898 1996 2077 2218 2313 2410 2454 2452 2464 2458 2463 2473 2477 2449 2450 2476
1075 1082 1084 1087 1081 1094 1109 1118 1103 1080 1065 1058 1204 1260 1302 1380 1426 1438 1602 1795 1846 1861 1908 1906 1869 1852 1894 1978 2073 2167 2271 2371 2459 2499 2519 2504 2509 2534 2522 2507 2559 2528
1072 1078 1087 1091 1086 1090 1096 1088 1079 1078 1083 1145 1247 1306 1368 1424 1465 1481 1468 1576 1769 1892 1966 2003 2004 1995 1983 1999 2056 2166 2303 2359 2433 2491 2535 2560 2561 2529 2533 2584 2620 2621
1110 1102 1100 1106 1126 1126 1118 1106 1100 1106 1115 1128 1158 1286 1363 1482 1554 1616 1610 1566 1595 1735 1872 1979 2067 2122 2047 1979 1970 2164 2241 2346 2400 2454 2489 2536 2581 2569 2533 2550 2601 2656
1293 1230 1158 1160 1179 1168 1172 1171 1170 1178 1194 1184 1172 1228 1327 1408 1549 1638 1762 1762 1715 1704 1743 1840 1954 2026 2011 2068 2116 2114 2152 2340 2406 2466 2498 2586 2608 2568 2634 2618 2610 2659
1464 1456 1416 1299 1254 1268 1268 1268 1270 1318 1360 1364 1322 1270 1250 1297 1394 1486 1663 1817 1913 1908 1856 1814 1871 1794 1841 1924 2021 2119 2184 2285 2430 2463 2495 2574 2612 2674 2712 2718 2724 2684
1585 1615 1604 1573 1487 1403 1390 1397 1416 1470 1512 1526 1540 1503 1410 1283 1377 1292 1425 1546 1760 1970 2046 2036 1997 1836 1846 1872 1891 1920 1989 2074 2141 2362 2486 2541 2640 2716 2776 2808 2787 2787
1718 1722 1740 1734 1705 1608 1562 1560 1579 1634 1655 1689 1704 1702 1679 1557 1359 1342 1334 1338 1409 1562 1750 1930 2083 2036 2004 1990 1995 2015 2033 2043 2024 2073 2330 2488 2597 2758 2790 2867 2852 2855
1882 1862 1848 1856 1852 1751 1745 1746 1760 1774 1809 1857 1881 1904 1892 1799 1652 1472 1416 1396 1375 1348 1349 1463 1580 1698 1926 2057 2108 2133 2156 2150 2174 2174 2145 2336 2505 2666 2736 2798 2848 2936
2050 2022 2003 2000 1979 1913 1898 1909 1924 1919 1988 2062 2131 2145 2143 2084 1986 1838 1664 1532 1482 1451 1423 1392 1344 1321 1404 1642 1911 2079 2150 2189 2209 2228 2234 2217 2268 2436 2568 2695 2776 2865
2198 2176 2158 2144 2041 2047 2065 2066 2091 2183 2254 2318 2378 2395 2397 2356 2300 2225 2127 2007 1876 1726 1577 1494 1426 1396 1378 1352 1372 1594 1808 1959 2052 2092 2102 2118 2105 2248 2388 2501 2613 2740
2330 2325 2286 2216 2218 2224 2219 2264 2340 2410 2456 2499 2532 2552 2566 2569 2564 2580 2558 2493 2368 2272 2138 1952 1792 1625 1502 1475 1434 1400 1393 1536 1622 1696 1766 1808 1876 2108 2291 2440 2582 2433
2488 2397 2345 2311 2386 2425 2462 2536 2600 2624 2674 2744 2782 2849 2901 2971 3033 3062 3024 2971 2899 2810 2696 2552 2430 2295 2136 1963 1726 1580 1518 1490 1474 1515 1561 1630 1814 1984 2131 2323 2487 2469
2687 2720 2790 2805 2837 2889 2942 2970 2982 3011 3031 3084 3136 3176 3183 3244 3308 3352 3359 3350 3320 3236 3097 2990 2837 2692 2567 2408 2212 2015 1798 1609 1559 1552 1584 1618 1831 2028 2097 2239 2346 2520
Wind_Speed
5 8 8 8 8 8 7 6 7 7 8 10 10 10 10 10 7 8 8 8 10 11 12 12 13 14 14 15 17 17 18 20 20 18 19 17 16 14 12 11 11 12
6 7 9 9 10 10 10 9 8 7 8 8 9 9 9 6 6 5 6 6 6 8 8 8 10 11 12 12 14 15 15 16 18 16 19 20 19 16 15 13 11 10
8 9 8 8 8 8 8 10 9 9 9 8 7 7 6 5 3 3 3 3 4 4 5 5 5 7 8 9 10 11 12 14 15 15 16 19 18 19 17 14 12 11
10 10 10 9 11 11 12 12 10 10 10 9 7 6 5 4 2 1 1 1 2 2 1 1 3 4 5 7 8 8 9 10 11 11 13 13 15 17 18 16 14 11
12 13 13 13 14 14 14 12 9 9 8 8 9 7 5 4 4 4 3 2 1 1 2 2 2 3 4 5 7 7 9 9 9 10 10 12 12 14 15 15 16 14
15 15 15 15 15 14 14 12 11 10 10 10 8 8 6 5 5 5 6 5 5 4 4 4 4 4 5 6 7 6 8 8 9 10 10 10 10 10 11 13 15 16
15 16 15 16 15 15 14 14 14 13 11 10 12 9 8 7 5 5 7 7 6 6 5 5 5 5 6 6 6 6 7 8 9 10 10 8 8 8 9 11 13 15
15 17 16 17 15 15 15 15 15 14 13 13 9 9 9 8 7 8 8 8 8 7 7 6 5 5 7 7 6 6 6 7 8 9 8 7 7 7 8 8 9 12
16 16 17 15 15 16 16 16 16 15 14 12 11 11 10 9 9 9 9 9 8 8 7 7 6 6 7 7 5 5 6 6 7 8 7 6 6 6 6 6 7 9
15 16 15 15 17 17 16 16 17 16 15 13 12 13 12 11 11 10 10 9 8 8 7 7 7 6 7 6 5 5 5 5 6 6 6 5 5 5 5 5 6 6
14 14 14 14 15 17 17 18 17 17 16 14 15 14 14 13 12 12 10 9 8 7 7 7 6 6 6 5 4 3 3 3 4 5 4 4 4 3 4 5 5 6
13 13 11 11 12 15 15 16 17 16 16 17 16 15 15 15 13 14 10 8 7 7 7 7 7 6 6 6 6 5 4 3 3 4 4 4 3 3 3 3 3 4
11 10 11 11 12 13 15 17 17 17 17 16 17 16 15 15 14 12 9 8 7 7 7 8 8 8 7 7 6 6 5 5 4 4 4 5 4 3 2 2 2 2
11 11 12 12 14 15 16 16 16 16 16 17 18 16 15 14 13 11 10 9 8 7 7 9 9 8 9 9 7 7 7 6 5 5 5 5 4 4 3 3 3 3
14 15 16 17 17 18 17 17 16 16 17 17 17 16 15 14 12 11 9 8 7 7 7 9 8 8 10 10 9 8 8 6 6 5 5 5 5 5 5 5 5 5
17 18 19 19 18 17 17 16 17 17 17 16 14 13 14 13 12 9 9 8 7 7 7 8 7 8 9 11 11 9 9 7 6 5 5 5 5 6 6 7 6 7
20 19 19 18 17 17 17 17 16 17 16 14 13 13 13 12 11 9 9 8 7 7 7 7 6 8 9 12 12 12 10 8 7 6 7 6 7 6 5 7 9 8
18 19 18 18 18 17 16 16 17 16 14 14 13 13 13 13 10 9 8 8 9 8 8 7 6 7 10 11 11 12 11 8 9 8 8 8 8 8 7 8 8 9
18 18 17 17 16 16 17 18 16 14 14 13 13 13 14 12 10 10 9 8 7 7 7 7 8 10 12 12 12 12 12 9 7 7 8 8 8 7 6 6 7 8
17 17 16 15 16 16 16 15 14 12 13 14 14 15 13 11 11 10 10 9 8 8 8 8 9 11 14 13 12 13 13 12 9 7 6 6 6 7 7 6 7 8
15 14 13 14 14 14 14 12 11 12 11 12 14 13 12 11 11 11 10 10 9 10 9 9 11 11 14 14 13 14 14 14 11 9 7 6 6 6 6 6 7 9
13 12 11 11 11 11 10 9 8 8 9 11 12 12 12 13 13 13 11 11 11 11 11 8 11 12 14 14 14 14 16 14 11 9 9 8 8 8 8 9 8 8
10 9 9 8 8 7 6 5 5 5 7 9 8 9 10 11 10 12 12 13 13 12 10 9 11 13 16 15 15 17 17 13 11 12 11 10 8 9 10 9 8 7
11 10 9 8 7 5 5 5 5 5 4 6 5 6 7 8 11 11 12 13 12 12 13 13 13 15 18 17 18 20 17 13 12 13 12 10 10 10 11 11 7 4
13 11 10 8 7 6 6 5 5 5 4 5 5 6 6 8 9 10 10 12 13 12 11 11 13 15 18 19 20 21 17 12 12 14 13 12 13 12 12 12 10 9
15 12 11 10 8 7 8 7 7 8 9 9 7 8 9 10 11 11 10 12 13 13 13 13 13 15 20 21 22 21 20 16 15 15 13 13 15 15 14 14 12 11
Wind_Direction
175 187 192 194 187 182 181 178 178 170 155 149 135 122 108 102 97 78 72 68 63 63 59 54 54 55 56 54 54 55 55 56 57 52 49 49 53 52 57 61 66 68
170 190 194 189 186 181 172 176 181 171 158 149 137 131 125 126 107 93 76 69 70 66 60 52 48 46 44 46 44 45 48 48 51 48 45 44 48 47 55 57 58 64
178 191 192 185 177 169 171 182 183 172 166 152 149 142 141 147 132 109 97 87 81 73 56 50 37 31 27 27 25 30 34 36 42 39 40 41 41 40 48 51 56 52
179 189 190 181 177 174 183 191 184 177 177 172 146 155 170 179 182 188 150 100 88 83 63 10 17 355 354 355 355 5 12 19 26 24 33 39 38 38 42 41 50 55
186 192 190 186 183 182 187 187 184 183 176 168 181 187 192 207 226 232 246 241 223 217 254 295 297 317 316 319 329 334 357 3 359 3 16 30 33 32 38 33 39 47
189 195 195 191 187 187 185 184 187 189 186 193 187 203 205 222 228 237 249 257 247 248 256 264 278 287 293 304 307 319 321 341 338 343 359 17 25 25 34 30 33 40
193 198 197 194 189 187 186 188 192 194 196 193 209 210 222 230 238 245 255 262 266 266 271 280 287 280 281 285 298 309 316 318 320 332 350 1 4 20 27 30 30 36
197 201 201 197 192 191 191 193 195 198 201 209 211 216 229 235 246 243 251 266 266 278 280 286 287 292 284 283 298 311 316 315 338 339 339 354 342 11 19 18 23 34
205 206 205 199 193 194 195 198 200 202 208 210 214 220 226 233 239 245 254 262 269 274 282 283 291 289 284 291 312 323 326 319 317 322 335 341 342 3 14 360 16 29
209 210 209 202 197 196 199 201 204 206 209 211 216 220 227 230 237 245 250 258 268 273 279 282 285 289 292 303 331 333 338 340 322 321 326 331 337 349 353 340 1 15
210 213 212 207 201 201 202 206 209 210 210 213 218 219 224 232 235 244 250 258 265 277 281 287 300 302 309 309 317 326 339 328 320 312 312 318 323 332 328 333 339 4
211 213 215 212 209 207 208 211 212 212 212 212 218 221 225 229 240 242 252 261 267 276 285 295 299 304 314 320 311 310 314 312 297 291 292 290 294 299 312 316 331 349
207 210 212 214 212 210 212 213 214 214 214 214 218 221 226 229 236 243 244 253 264 273 287 294 298 303 303 308 312 314 319 314 298 289 278 270 273 280 284 294 310 300
199 204 207 209 211 211 212 213 214 215 215 215 220 222 224 228 233 237 237 244 260 272 281 283 291 297 298 299 307 317 318 315 304 292 281 270 263 261 258 251 253 263
202 202 203 206 209 210 211 212 214 215 217 219 222 222 223 225 226 229 237 247 256 268 275 279 287 292 286 293 307 324 319 318 313 296 284 271 263 259 255 248 239 236
208 207 208 210 210 211 212 214 216 218 221 223 224 226 227 228 227 231 238 250 260 265 270 269 273 270 290 323 324 318 320 310 306 300 287 270 262 255 258 261 250 240
212 211 213 212 211 211 214 218 221 224 226 227 227 230 231 231 233 238 244 250 262 265 274 267 265 265 304 311 332 341 322 310 304 287 273 268 261 255 247 253 254 254
214 215 214 211 212 212 217 221 225 227 229 231 232 235 233 232 237 245 249 253 255 266 271 276 272 282 301 314 327 336 329 308 279 271 268 263 258 255 248 250 252 251
217 217 215 214 213 215 219 224 227 228 229 231 234 235 235 237 241 247 252 258 265 274 274 277 273 290 306 318 324 328 334 316 279 276 267 263 263 262 260 260 253 249
220 219 217 217 218 220 224 226 229 229 230 231 232 236 238 240 247 253 256 264 269 271 268 264 270 286 305 316 320 323 324 311 277 277 271 271 282 275 272 268 265 255
219 219 219 221 223 224 225 225 228 227 231 234 235 240 245 249 253 257 260 265 267 266 262 261 261 287 298 310 315 317 317 305 274 268 265 275 286 295 294 279 266 257
215 214 213 216 220 222 223 221 225 231 236 239 239 239 241 243 246 253 261 264 263 262 261 267 263 289 295 301 305 304 306 284 277 271 269 274 284 292 289 277 269 259
200 197 194 200 207 211 209 206 211 221 227 236 242 242 244 247 252 253 253 255 258 261 264 258 258 279 293 298 300 303 290 274 274 267 270 278 287 287 283 278 270 261
186 183 182 185 191 181 177 174 180 197 212 235 241 244 244 247 248 249 252 254 258 257 257 252 254 270 290 295 301 304 300 286 270 270 274 282 280 277 271 266 265 289
188 188 186 188 188 178 180 178 184 192 205 231 229 232 240 245 251 254 259 259 259 259 269 269 255 264 285 292 299 303 300 277 275 270 276 274 268 264 262 257 251 253
196 195 195 197 193 194 199 197 205 211 220 234 238 242 245 251 258 260 272 269 269 270 267 269 265 262 271 289 293 299 306 283 272 277 277 274 265 261 255 255 254 250